,,Stat6,,Stat2,,Stat8,,Stat9,,Stat10,,Wind1,,Wind1,
time,status,PA1M_AVG,status,PR1M_SUM,status,RH1M_AVG,status,SR1M_AVG,status,TA1M_AVG,status,W1dAve1m,status,W1sAve1m,
2005-11-03, 00:00:00,VALID,918.831,VALID,0,VALID,100,VALID,0.0339617,VALID,18.5013,VALID,341,VALID,1.11719,
2005-11-03, 00:01:00,VALID,918.826,VALID,0,VALID,100,VALID,0,VALID,18.5082,VALID,354,VALID,0.712798,
2005-11-03, 00:02:00,VALID,918.79,VALID,0,VALID,100,VALID,0,VALID,18.5045,VALID,25,VALID,1.05105,
2005-11-03, 00:03:00,VALID,918.775,VALID,0,VALID,100,VALID,0.0169808,VALID,18.5216,VALID,16,VALID,1.79306,
2005-11-03, 00:04:00,VALID,918.764,VALID,0.2,VALID,100,VALID,0,VALID,18.5117,VALID,299,VALID,0.753815,
2005-11-03, 00:05:00,VALID,918.76,VALID,0,VALID,100,VALID,0,VALID,18.5013,VALID,360,VALID,1.39205,
2005-11-03, 00:06:00,VALID,918.799,VALID,0,VALID,100,VALID,0,VALID,18.4919,VALID,169,VALID,0.985564,
2005-11-03, 00:07:00,VALID,918.726,VALID,0,VALID,100,VALID,0,VALID,18.5018,VALID,37,VALID,1.11589,
2005-11-03, 00:08:00,VALID,918.684,VALID,0,VALID,100,VALID,-0.0169808,VALID,18.4953,VALID,21,VALID,1.93058,
2005-11-03, 00:09:00,VALID,918.699,VALID,0.2,VALID,100,VALID,0,VALID,18.4884,VALID,348,VALID,1.02684,
2005-11-03, 00:10:00,VALID,918.667,VALID,0,VALID,100,VALID,-0.0169808,VALID,18.4988,VALID,51,VALID,1.33352,
2005-11-03, 00:11:00,VALID,918.669,VALID,0,VALID,100,VALID,0.0169808,VALID,18.4949,VALID,345,VALID,1.35085,
2005-11-03, 00:12:00,VALID,918.663,VALID,0,VALID,100,VALID,0.0339617,VALID,18.4757,VALID,1,VALID,1.83975,
2005-11-03, 00:13:00,VALID,918.622,VALID,0,VALID,100,VALID,0.0169808,VALID,18.4859,VALID,87,VALID,1.60778,
2005-11-03, 00:14:00,VALID,918.619,VALID,0,VALID,100,VALID,0,VALID,18.4822,VALID,187,VALID,0.771019,
2005-11-03, 00:15:00,VALID,918.596,VALID,0,VALID,100,VALID,0.0169808,VALID,18.4727,VALID,7,VALID,1.59032,
2005-11-03, 00:16:00,VALID,918.601,VALID,0,VALID,100,VALID,0.0169808,VALID,18.466,VALID,24,VALID,2.13746,
2005-11-03, 00:17:00,VALID,918.6,VALID,0,VALID,100,VALID,0,VALID,18.4824,VALID,39,VALID,1.16715,
2005-11-03, 00:18:00,VALID,918.596,VALID,0,VALID,100,VALID,0,VALID,18.4824,VALID,325,VALID,1.10813,
2005-11-03, 00:19:00,VALID,918.586,VALID,0.2,VALID,100,VALID,0,VALID,18.4628,VALID,311,VALID,0.735677,
2005-11-03, 00:20:00,VALID,918.557,VALID,0,VALID,100,VALID,0,VALID,18.4695,VALID,45,VALID,1.40551,
2005-11-03, 00:21:00,VALID,918.533,VALID,0,VALID,100,VALID,0.0169808,VALID,18.4789,VALID,14,VALID,1.33085,
2005-11-03, 00:22:00,VALID,918.537,VALID,0,VALID,100,VALID,0,VALID,18.4958,VALID,7,VALID,0.572266,
2005-11-03, 00:23:00,VALID,918.516,VALID,0,VALID,100,VALID,0,VALID,18.4921,VALID,353,VALID,1.17951,
2005-11-03, 00:24:00,VALID,918.512,VALID,0,VALID,100,VALID,0,VALID,18.4697,VALID,359,VALID,2.15469,
2005-11-03, 00:25:00,VALID,918.484,VALID,0,VALID,100,VALID,0,VALID,18.4759,VALID,4,VALID,1.56321,
2005-11-03, 00:26:00,VALID,918.494,VALID,0,VALID,100,VALID,-0.0169808,VALID,18.4893,VALID,204,VALID,0.734193,
2005-11-03, 00:27:00,VALID,918.485,VALID,0,VALID,100,VALID,0,VALID,18.5025,VALID,347,VALID,0.756424,
2005-11-03, 00:28:00,VALID,918.463,VALID,0,VALID,100,VALID,-0.0169808,VALID,18.4794,VALID,300,VALID,0.553163,
2005-11-03, 00:29:00,VALID,918.474,VALID,0,VALID,100,VALID,0.0169808,VALID,18.4764,VALID,12,VALID,0.446221,
2005-11-03, 00:30:00,VALID,918.443,VALID,0,VALID,100,VALID,0,VALID,18.5057,VALID,16,VALID,0.258203,
2005-11-03, 00:31:00,VALID,918.423,VALID,0,VALID,100,VALID,0,VALID,18.499,VALID,106,VALID,0.440625,
2005-11-03, 00:32:00,VALID,918.399,VALID,0,VALID,100,VALID,0,VALID,18.502,VALID,180,VALID,0.498183,
2005-11-03, 00:33:00,VALID,918.361,VALID,0.2,VALID,100,VALID,0,VALID,18.5018,VALID,66,VALID,0.672057,
2005-11-03, 00:34:00,VALID,918.338,VALID,0,VALID,100,VALID,-0.0169808,VALID,18.5085,VALID,54,VALID,0.970189,
2005-11-03, 00:35:00,VALID,918.32,VALID,0,VALID,100,VALID,0.0169808,VALID,18.5149,VALID,52,VALID,0.521984,
2005-11-03, 00:36:00,VALID,918.309,VALID,0,VALID,100,VALID,0,VALID,18.5085,VALID,45,VALID,0.730755,
2005-11-03, 00:37:00,VALID,918.268,VALID,0,VALID,100,VALID,0,VALID,18.5316,VALID,6,VALID,0.431771,
2005-11-03, 00:38:00,VALID,918.272,VALID,0,VALID,100,VALID,0,VALID,18.5274,VALID,8,VALID,0.645894,
2005-11-03, 00:39:00,VALID,918.26,VALID,0,VALID,100,VALID,0,VALID,18.5567,VALID,19,VALID,0.323103,
2005-11-03, 00:40:00,VALID,918.24,VALID,0,VALID,100,VALID,0,VALID,18.5768,VALID,25,VALID,0.343568,
2005-11-03, 00:41:00,VALID,918.202,VALID,0,VALID,100,VALID,0.0169808,VALID,18.5791,VALID,355,VALID,0.693359,
2005-11-03, 00:42:00,VALID,918.194,VALID,0,VALID,100,VALID,0.0169808,VALID,18.5403,VALID,41,VALID,0.593178,
2005-11-03, 00:43:00,VALID,918.175,VALID,0,VALID,100,VALID,0.0509425,VALID,18.553,VALID,21,VALID,0.578311,
2005-11-03, 00:44:00,VALID,918.156,VALID,0,VALID,100,VALID,0,VALID,18.5532,VALID,3,VALID,0.492188,
2005-11-03, 00:45:00,VALID,918.159,VALID,0,VALID,100,VALID,0.0169808,VALID,18.5657,VALID,303,VALID,0.369727,
2005-11-03, 00:46:00,VALID,918.126,VALID,0,VALID,100,VALID,0.0339617,VALID,18.5572,VALID,19,VALID,1.30041,
2005-11-03, 00:47:00,VALID,918.128,VALID,0,VALID,100,VALID,0.0169808,VALID,18.5242,VALID,19,VALID,0.643415,
2005-11-03, 00:48:00,VALID,918.103,VALID,0,VALID,100,VALID,0.0169808,VALID,18.5212,VALID,172,VALID,0.890253,
2005-11-03, 00:49:00,VALID,918.077,VALID,0,VALID,100,VALID,0,VALID,18.5115,VALID,24,VALID,1.23892,
2005-11-03, 00:50:00,VALID,918.061,VALID,0,VALID,100,VALID,0.0169808,VALID,18.5043,VALID,24,VALID,1.11509,
2005-11-03, 00:51:00,VALID,918.04,VALID,0,VALID,100,VALID,0.0169808,VALID,18.5279,VALID,28,VALID,0.569931,
2005-11-03, 00:52:00,VALID,918.02,VALID,0,VALID,100,VALID,-0.0169808,VALID,18.5085,VALID,68,VALID,0.377362,
2005-11-03, 00:53:00,VALID,918.013,VALID,0,VALID,100,VALID,0.0169808,VALID,18.5115,VALID,3,VALID,0.447461,
2005-11-03, 00:54:00,VALID,917.979,VALID,0,VALID,100,VALID,-0.0169808,VALID,18.4725,VALID,256,VALID,0.633614,
2005-11-03, 00:55:00,VALID,917.98,VALID,0,VALID,100,VALID,0,VALID,18.4665,VALID,46,VALID,0.475781,
2005-11-03, 00:56:00,VALID,917.967,VALID,0,VALID,100,VALID,0,VALID,18.4824,VALID,48,VALID,0.762355,
2005-11-03, 00:57:00,VALID,917.941,VALID,0,VALID,100,VALID,0,VALID,18.4826,VALID,329,VALID,0.320884,
2005-11-03, 00:58:00,VALID,917.925,VALID,0,VALID,100,VALID,0.0169808,VALID,18.4831,VALID,271,VALID,0.168636,
2005-11-03, 00:59:00,VALID,917.891,VALID,0,VALID,100,VALID,0,VALID,18.4729,VALID,221,VALID,0.607088,
2005-11-03, 01:00:00,VALID,917.877,VALID,0,VALID,100,VALID,0,VALID,18.4697,VALID,268,VALID,0.312678,
2005-11-03, 01:01:00,VALID,917.845,VALID,0,VALID,100,VALID,0,VALID,18.4501,VALID,43,VALID,0.602471,
2005-11-03, 01:02:00,VALID,917.843,VALID,0,VALID,100,VALID,0,VALID,18.46,VALID,119,VALID,0.797637,
2005-11-03, 01:03:00,VALID,917.834,VALID,0,VALID,100,VALID,0,VALID,18.4568,VALID,146,VALID,0.823264,
2005-11-03, 01:04:00,VALID,917.825,VALID,0,VALID,100,VALID,-0.0169808,VALID,18.4533,VALID,40,VALID,0.689704,
2005-11-03, 01:05:00,VALID,917.809,VALID,0,VALID,100,VALID,0,VALID,18.4568,VALID,27,VALID,0.641927,
2005-11-03, 01:06:00,VALID,917.81,VALID,0,VALID,100,VALID,0,VALID,18.4501,VALID,284,VALID,0.63205,
2005-11-03, 01:07:00,VALID,917.808,VALID,0,VALID,100,VALID,0,VALID,18.4663,VALID,302,VALID,0.796113,
2005-11-03, 01:08:00,VALID,917.79,VALID,0,VALID,100,VALID,0,VALID,18.4529,VALID,232,VALID,0.75728,
2005-11-03, 01:09:00,VALID,917.815,VALID,0,VALID,100,VALID,0,VALID,18.4635,VALID,268,VALID,0.69308,
2005-11-03, 01:10:00,VALID,917.791,VALID,0,VALID,100,VALID,0.0169808,VALID,18.4665,VALID,286,VALID,0.419513,
2005-11-03, 01:11:00,VALID,917.799,VALID,0,VALID,100,VALID,0,VALID,18.4663,VALID,18,VALID,0.304492,
2005-11-03, 01:12:00,VALID,917.767,VALID,0,VALID,100,VALID,0.0169808,VALID,18.4796,VALID,24,VALID,0.893787,
2005-11-03, 01:13:00,VALID,917.784,VALID,0,VALID,100,VALID,0.0169808,VALID,18.4826,VALID,250,VALID,0.518945,
2005-11-03, 01:14:00,VALID,917.772,VALID,0,VALID,100,VALID,0,VALID,18.4759,VALID,180,VALID,0.116443,
2005-11-03, 01:15:00,VALID,917.765,VALID,0,VALID,100,VALID,0.0339617,VALID,18.4727,VALID,102,VALID,0.738554,
2005-11-03, 01:16:00,VALID,917.767,VALID,0,VALID,100,VALID,0.0509425,VALID,18.4626,VALID,20,VALID,0.734715,
2005-11-03, 01:17:00,VALID,917.762,VALID,0,VALID,100,VALID,0.0339617,VALID,18.4789,VALID,334,VALID,0.642857,
2005-11-03, 01:18:00,VALID,917.776,VALID,0,VALID,100,VALID,-0.0169808,VALID,18.4697,VALID,201,VALID,0.657912,
2005-11-03, 01:19:00,VALID,917.778,VALID,0,VALID,100,VALID,-0.0679233,VALID,18.4681,VALID,285,VALID,0.415251,
2005-11-03, 01:20:00,VALID,917.77,VALID,0,VALID,100,VALID,-0.101885,VALID,18.4905,VALID,16,VALID,0.359947,
2005-11-03, 01:21:00,VALID,917.743,VALID,0,VALID,100,VALID,-0.0679233,VALID,18.4674,VALID,37,VALID,1.19382,
2005-11-03, 01:22:00,VALID,917.733,VALID,0,VALID,100,VALID,-0.0509425,VALID,18.4679,VALID,17,VALID,1.20236,
2005-11-03, 01:23:00,VALID,917.711,VALID,0,VALID,100,VALID,-0.0849042,VALID,18.4326,VALID,1,VALID,0.692708,
2005-11-03, 01:24:00,VALID,917.705,VALID,0,VALID,100,VALID,-0.101885,VALID,18.4127,VALID,77,VALID,0.432594,
2005-11-03, 01:25:00,VALID,917.693,VALID,0,VALID,100,VALID,-0.0679233,VALID,18.3996,VALID,182,VALID,0.374092,
2005-11-03, 01:26:00,VALID,917.679,VALID,0,VALID,100,VALID,-0.0849042,VALID,18.4167,VALID,209,VALID,0.349466,
2005-11-03, 01:27:00,VALID,917.653,VALID,0,VALID,100,VALID,-0.0849042,VALID,18.4229,VALID,31,VALID,0.956473,
2005-11-03, 01:28:00,VALID,917.632,VALID,0,VALID,100,VALID,-0.0849042,VALID,18.4386,VALID,23,VALID,0.777902,
2005-11-03, 01:29:00,VALID,917.622,VALID,0,VALID,100,VALID,-0.0679233,VALID,18.4224,VALID,271,VALID,0.938281,
2005-11-03, 01:30:00,VALID,917.593,VALID,0,VALID,100,VALID,-0.0509425,VALID,18.403,VALID,220,VALID,0.517187,
2005-11-03, 01:31:00,VALID,917.586,VALID,0,VALID,100,VALID,-0.0679233,VALID,18.3998,VALID,20,VALID,0.876028,
2005-11-03, 01:32:00,VALID,917.59,VALID,0,VALID,100,VALID,-0.0679233,VALID,18.4003,VALID,1,VALID,0.451042,
2005-11-03, 01:33:00,VALID,917.578,VALID,0,VALID,100,VALID,-0.0509425,VALID,18.3968,VALID,1,VALID,0.0120046,
2005-11-03, 01:34:00,VALID,917.581,VALID,0,VALID,100,VALID,-0.0679233,VALID,18.4003,VALID,1,VALID,0.170945,
2005-11-03, 01:35:00,VALID,917.58,VALID,0,VALID,100,VALID,-0.0679233,VALID,18.4033,VALID,1,VALID,0.062314,
2005-11-03, 01:36:00,VALID,917.572,VALID,0,VALID,100,VALID,-0.0509425,VALID,18.4197,VALID,17,VALID,0.221839,
2005-11-03, 01:37:00,VALID,917.57,VALID,0,VALID,100,VALID,-0.0679233,VALID,18.3998,VALID,88,VALID,0.196057,
2005-11-03, 01:38:00,VALID,917.577,VALID,0,VALID,100,VALID,-0.0679233,VALID,18.4227,VALID,90,VALID,0.24983,
2005-11-03, 01:39:00,VALID,917.585,VALID,0,VALID,100,VALID,-0.0509425,VALID,18.416,VALID,164,VALID,0.308408,
2005-11-03, 01:40:00,VALID,917.56,VALID,0,VALID,100,VALID,-0.0849042,VALID,18.3832,VALID,257,VALID,0.926417,
2005-11-03, 01:41:00,VALID,917.557,VALID,0,VALID,100,VALID,-0.0849042,VALID,18.3414,VALID,249,VALID,0.986555,
2005-11-03, 01:42:00,VALID,917.537,VALID,0,VALID,100,VALID,-0.101885,VALID,18.368,VALID,268,VALID,0.442472,
2005-11-03, 01:43:00,VALID,917.501,VALID,0,VALID,100,VALID,-0.101885,VALID,18.358,VALID,296,VALID,1.02553,
2005-11-03, 01:44:00,VALID,917.5,VALID,0,VALID,100,VALID,-0.101885,VALID,18.3424,VALID,255,VALID,1.1511,
2005-11-03, 01:45:00,VALID,917.454,VALID,0,VALID,100,VALID,-0.101885,VALID,18.3419,VALID,327,VALID,0.953125,
2005-11-03, 01:46:00,VALID,917.436,VALID,0,VALID,100,VALID,-0.0509425,VALID,18.3643,VALID,348,VALID,1.03634,
2005-11-03, 01:47:00,VALID,917.412,VALID,0,VALID,100,VALID,-0.101885,VALID,18.3876,VALID,14,VALID,1.22805,
2005-11-03, 01:48:00,VALID,917.404,VALID,0,VALID,100,VALID,-0.0509425,VALID,18.4026,VALID,47,VALID,0.445898,
2005-11-03, 01:49:00,VALID,917.378,VALID,0,VALID,100,VALID,0.0169808,VALID,18.4185,VALID,118,VALID,0.400174,
2005-11-03, 01:50:00,VALID,917.376,VALID,0,VALID,100,VALID,0,VALID,18.4118,VALID,25,VALID,0.917597,
2005-11-03, 01:51:00,VALID,917.341,VALID,0,VALID,100,VALID,-0.0169808,VALID,18.4282,VALID,23,VALID,1.78943,
2005-11-03, 01:52:00,VALID,917.333,VALID,0,VALID,100,VALID,0,VALID,18.4573,VALID,252,VALID,0.837391,
2005-11-03, 01:53:00,VALID,917.324,VALID,0.2,VALID,100,VALID,0,VALID,18.4476,VALID,198,VALID,0.979102,
2005-11-03, 01:54:00,VALID,917.332,VALID,0,VALID,100,VALID,0.0169808,VALID,18.4503,VALID,220,VALID,0.801897,
2005-11-03, 01:55:00,VALID,917.31,VALID,0,VALID,100,VALID,0.0169808,VALID,18.4633,VALID,75,VALID,1.35785,
2005-11-03, 01:56:00,VALID,917.293,VALID,0,VALID,100,VALID,0.0339617,VALID,18.4893,VALID,293,VALID,1.09947,
2005-11-03, 01:57:00,VALID,917.281,VALID,0,VALID,100,VALID,0,VALID,18.4923,VALID,122,VALID,0.585392,
2005-11-03, 01:58:00,VALID,917.281,VALID,0,VALID,100,VALID,0.0339617,VALID,18.502,VALID,47,VALID,0.374809,
2005-11-03, 01:59:00,VALID,917.264,VALID,0,VALID,100,VALID,0,VALID,18.5216,VALID,32,VALID,0.637718,
2005-11-03, 02:00:00,VALID,917.255,VALID,0,VALID,100,VALID,0,VALID,18.5378,VALID,29,VALID,1.10213,
2005-11-03, 02:01:00,VALID,917.28,VALID,0,VALID,100,VALID,0,VALID,18.5475,VALID,50,VALID,0.730378,
2005-11-03, 02:02:00,VALID,917.261,VALID,0,VALID,100,VALID,-0.0169808,VALID,18.5348,VALID,206,VALID,1.01105,
2005-11-03, 02:03:00,VALID,917.25,VALID,0,VALID,100,VALID,0.0169808,VALID,18.538,VALID,13,VALID,1.15777,
2005-11-03, 02:04:00,VALID,917.277,VALID,0,VALID,100,VALID,0,VALID,18.541,VALID,226,VALID,0.789648,
2005-11-03, 02:05:00,VALID,917.281,VALID,0,VALID,100,VALID,0.0339617,VALID,18.5311,VALID,134,VALID,0.433503,
2005-11-03, 02:06:00,VALID,917.284,VALID,0,VALID,100,VALID,0.0339617,VALID,18.5212,VALID,114,VALID,0.24295,
2005-11-03, 02:07:00,VALID,917.299,VALID,0,VALID,100,VALID,0.0169808,VALID,18.5477,VALID,114,VALID,0.454215,
2005-11-03, 02:08:00,VALID,917.331,VALID,0,VALID,100,VALID,0,VALID,18.5341,VALID,26,VALID,0.615916,
2005-11-03, 02:09:00,VALID,917.342,VALID,0,VALID,100,VALID,0.0169808,VALID,18.5507,VALID,355,VALID,0.762091,
2005-11-03, 02:10:00,VALID,917.32,VALID,0,VALID,100,VALID,0.0169808,VALID,18.547,VALID,34,VALID,0.471227,
2005-11-03, 02:11:00,VALID,917.341,VALID,0,VALID,100,VALID,0.0339617,VALID,18.5472,VALID,86,VALID,0.710768,
2005-11-03, 02:12:00,VALID,917.34,VALID,0,VALID,100,VALID,0,VALID,18.5634,VALID,21,VALID,1.11886,
2005-11-03, 02:13:00,VALID,917.311,VALID,0,VALID,100,VALID,0.0169808,VALID,18.5599,VALID,333,VALID,0.855469,
2005-11-03, 02:14:00,VALID,917.32,VALID,0,VALID,100,VALID,0.0339617,VALID,18.5629,VALID,264,VALID,0.367374,
2005-11-03, 02:15:00,VALID,917.311,VALID,0,VALID,100,VALID,0.0509425,VALID,18.5565,VALID,175,VALID,0.219113,
2005-11-03, 02:16:00,VALID,917.29,VALID,0,VALID,100,VALID,0.0169808,VALID,18.547,VALID,121,VALID,0.425781,
2005-11-03, 02:17:00,VALID,917.258,VALID,0,VALID,100,VALID,0.0169808,VALID,18.5706,VALID,14,VALID,1.10714,
2005-11-03, 02:18:00,VALID,917.25,VALID,0,VALID,100,VALID,0.0169808,VALID,18.5699,VALID,6,VALID,0.89897,
2005-11-03, 02:19:00,VALID,917.218,VALID,0,VALID,100,VALID,0,VALID,18.5865,VALID,11,VALID,0.853468,
2005-11-03, 02:20:00,VALID,917.202,VALID,0,VALID,100,VALID,0,VALID,18.5989,VALID,242,VALID,0.429514,
2005-11-03, 02:21:00,VALID,917.189,VALID,0,VALID,100,VALID,0,VALID,18.6059,VALID,170,VALID,0.492989,
2005-11-03, 02:22:00,VALID,917.165,VALID,0,VALID,100,VALID,-0.0339617,VALID,18.6091,VALID,9,VALID,0.504179,
2005-11-03, 02:23:00,VALID,917.104,VALID,0,VALID,100,VALID,-0.0169808,VALID,18.6119,VALID,251,VALID,1.00521,
2005-11-03, 02:24:00,VALID,917.099,VALID,0,VALID,100,VALID,0,VALID,18.628,VALID,261,VALID,0.771949,
2005-11-03, 02:25:00,VALID,917.08,VALID,0,VALID,100,VALID,-0.0169808,VALID,18.6382,VALID,175,VALID,0.607244,
2005-11-03, 02:26:00,VALID,917.053,VALID,0,VALID,100,VALID,0,VALID,18.6444,VALID,50,VALID,0.534157,
2005-11-03, 02:27:00,VALID,917.034,VALID,0,VALID,100,VALID,-0.0169808,VALID,18.6479,VALID,15,VALID,0.860828,
2005-11-03, 02:28:00,VALID,917.013,VALID,0,VALID,100,VALID,0,VALID,18.6571,VALID,22,VALID,0.478819,
2005-11-03, 02:29:00,VALID,916.997,VALID,0,VALID,100,VALID,-0.0169808,VALID,18.6504,VALID,16,VALID,1.02548,
2005-11-03, 02:30:00,VALID,916.958,VALID,0,VALID,100,VALID,-0.0169808,VALID,18.6702,VALID,308,VALID,0.980196,
2005-11-03, 02:31:00,VALID,916.941,VALID,0,VALID,100,VALID,0,VALID,18.6739,VALID,24,VALID,1.5971,
2005-11-03, 02:32:00,VALID,916.941,VALID,0,VALID,100,VALID,-0.0169808,VALID,18.6836,VALID,317,VALID,0.773268,
2005-11-03, 02:33:00,VALID,916.902,VALID,0,VALID,100,VALID,0,VALID,18.6832,VALID,346,VALID,0.985863,
2005-11-03, 02:34:00,VALID,916.911,VALID,0,VALID,100,VALID,-0.0169808,VALID,18.6899,VALID,341,VALID,1.05558,
2005-11-03, 02:35:00,VALID,916.889,VALID,0,VALID,100,VALID,-0.0169808,VALID,18.6896,VALID,315,VALID,1.27001,
2005-11-03, 02:36:00,VALID,916.892,VALID,0.2,VALID,100,VALID,-0.0169808,VALID,18.6864,VALID,184,VALID,0.695694,
2005-11-03, 02:37:00,VALID,916.887,VALID,0,VALID,100,VALID,-0.0169808,VALID,18.706,VALID,134,VALID,0.83734,
2005-11-03, 02:38:00,VALID,916.885,VALID,0,VALID,100,VALID,0,VALID,18.6958,VALID,107,VALID,0.797476,
2005-11-03, 02:39:00,VALID,916.912,VALID,0,VALID,100,VALID,-0.0169808,VALID,18.7025,VALID,4,VALID,0.946701,
2005-11-03, 02:40:00,VALID,916.896,VALID,0,VALID,100,VALID,-0.0169808,VALID,18.7222,VALID,358,VALID,0.683764,
2005-11-03, 02:41:00,VALID,916.859,VALID,0,VALID,100,VALID,-0.0169808,VALID,18.7252,VALID,21,VALID,1.03398,
2005-11-03, 02:42:00,VALID,916.879,VALID,0,VALID,100,VALID,0,VALID,18.7058,VALID,7,VALID,1.75868,
2005-11-03, 02:43:00,VALID,916.872,VALID,0,VALID,100,VALID,0.0339617,VALID,18.7348,VALID,359,VALID,0.636458,
2005-11-03, 02:44:00,VALID,916.867,VALID,0,VALID,100,VALID,0.0339617,VALID,18.7217,VALID,31,VALID,0.672066,
2005-11-03, 02:45:00,VALID,916.878,VALID,0,VALID,100,VALID,0,VALID,18.7185,VALID,160,VALID,0.498094,
2005-11-03, 02:46:00,VALID,916.856,VALID,0,VALID,100,VALID,-0.0169808,VALID,18.7249,VALID,41,VALID,0.845749,
2005-11-03, 02:47:00,VALID,916.875,VALID,0,VALID,100,VALID,0,VALID,18.7348,VALID,134,VALID,0.672743,
2005-11-03, 02:48:00,VALID,916.924,VALID,0,VALID,100,VALID,-0.0339617,VALID,18.7277,VALID,66,VALID,0.609375,
2005-11-03, 02:49:00,VALID,916.88,VALID,0,VALID,100,VALID,0.0169808,VALID,18.7378,VALID,246,VALID,1.60621,
2005-11-03, 02:50:00,VALID,916.87,VALID,0,VALID,100,VALID,0,VALID,18.7575,VALID,308,VALID,1.66606,
2005-11-03, 02:51:00,VALID,916.872,VALID,0,VALID,100,VALID,-0.0169808,VALID,18.7669,VALID,21,VALID,1.38154,
2005-11-03, 02:52:00,VALID,916.898,VALID,0.2,VALID,100,VALID,0,VALID,18.7637,VALID,69,VALID,0.415365,
2005-11-03, 02:53:00,VALID,916.888,VALID,0,VALID,100,VALID,0,VALID,18.7768,VALID,57,VALID,1.26372,
2005-11-03, 02:54:00,VALID,916.909,VALID,0,VALID,100,VALID,0,VALID,18.7895,VALID,22,VALID,1.65305,
2005-11-03, 02:55:00,VALID,916.896,VALID,0,VALID,100,VALID,0.0339617,VALID,18.7992,VALID,344,VALID,0.877046,
2005-11-03, 02:56:00,VALID,916.931,VALID,0,VALID,100,VALID,0,VALID,18.799,VALID,84,VALID,1.01797,
2005-11-03, 02:57:00,VALID,916.934,VALID,0,VALID,100,VALID,-0.0169808,VALID,18.8184,VALID,80,VALID,0.865412,
2005-11-03, 02:58:00,VALID,916.961,VALID,0,VALID,100,VALID,-0.0169808,VALID,18.8251,VALID,356,VALID,0.915968,
2005-11-03, 02:59:00,VALID,916.982,VALID,0,VALID,100,VALID,0,VALID,18.8179,VALID,61,VALID,0.524934,
2005-11-03, 03:00:00,VALID,916.97,VALID,0.2,VALID,100,VALID,0,VALID,18.8345,VALID,110,VALID,0.905878,
2005-11-03, 03:01:00,VALID,916.991,VALID,0,VALID,100,VALID,0,VALID,18.838,VALID,6,VALID,1.03627,
2005-11-03, 03:02:00,VALID,916.929,VALID,0,VALID,100,VALID,0.0169808,VALID,18.8378,VALID,52,VALID,1.37778,
2005-11-03, 03:03:00,VALID,916.946,VALID,0,VALID,100,VALID,0.0339617,VALID,18.8442,VALID,54,VALID,1.35212,
2005-11-03, 03:04:00,VALID,916.964,VALID,0,VALID,100,VALID,0.0339617,VALID,18.8211,VALID,62,VALID,1.5355,
2005-11-03, 03:05:00,VALID,916.963,VALID,0,VALID,100,VALID,0.0169808,VALID,18.8216,VALID,27,VALID,0.748547,
2005-11-03, 03:06:00,VALID,916.949,VALID,0,VALID,100,VALID,0.0169808,VALID,18.8154,VALID,26,VALID,1.30105,
2005-11-03, 03:07:00,VALID,916.966,VALID,0,VALID,100,VALID,0.0169808,VALID,18.8027,VALID,230,VALID,1.98438,
2005-11-03, 03:08:00,VALID,916.981,VALID,0,VALID,100,VALID,0,VALID,18.7697,VALID,349,VALID,1.1857,
2005-11-03, 03:09:00,VALID,916.999,VALID,0,VALID,100,VALID,0.0509425,VALID,18.7761,VALID,244,VALID,0.590625,
2005-11-03, 03:10:00,VALID,917.05,VALID,0,VALID,100,VALID,0.0169808,VALID,18.7831,VALID,321,VALID,0.94494,
2005-11-03, 03:11:00,VALID,917.052,VALID,0,VALID,100,VALID,0,VALID,18.7595,VALID,237,VALID,1.28534,
2005-11-03, 03:12:00,VALID,917.063,VALID,0,VALID,100,VALID,0,VALID,18.7607,VALID,228,VALID,0.568598,
2005-11-03, 03:13:00,VALID,917.068,VALID,0,VALID,100,VALID,0,VALID,18.7572,VALID,226,VALID,0.411086,
2005-11-03, 03:14:00,VALID,917.053,VALID,0,VALID,100,VALID,0,VALID,18.757,VALID,89,VALID,0.690518,
2005-11-03, 03:15:00,VALID,917.068,VALID,0,VALID,100,VALID,0,VALID,18.76,VALID,25,VALID,1.09681,
2005-11-03, 03:16:00,VALID,917.046,VALID,0,VALID,100,VALID,0,VALID,18.7736,VALID,33,VALID,1.19736,
2005-11-03, 03:17:00,VALID,917.063,VALID,0.2,VALID,100,VALID,0,VALID,18.7697,VALID,45,VALID,0.884266,
2005-11-03, 03:18:00,VALID,917.065,VALID,0,VALID,100,VALID,0,VALID,18.7635,VALID,18,VALID,1.1144,
2005-11-03, 03:19:00,VALID,917.097,VALID,0,VALID,100,VALID,0,VALID,18.7902,VALID,38,VALID,0.948475,
2005-11-03, 03:20:00,VALID,917.11,VALID,0,VALID,100,VALID,-0.0339617,VALID,18.7932,VALID,23,VALID,0.85831,
2005-11-03, 03:21:00,VALID,917.11,VALID,0,VALID,100,VALID,0,VALID,18.8129,VALID,321,VALID,0.676417,
2005-11-03, 03:22:00,VALID,917.092,VALID,0,VALID,100,VALID,-0.0339617,VALID,18.8126,VALID,37,VALID,1.49123,
2005-11-03, 03:23:00,VALID,917.111,VALID,0,VALID,100,VALID,0,VALID,18.8062,VALID,199,VALID,1.00963,
2005-11-03, 03:24:00,VALID,917.134,VALID,0.2,VALID,100,VALID,0,VALID,18.8059,VALID,189,VALID,0.850472,
2005-11-03, 03:25:00,VALID,917.101,VALID,0,VALID,100,VALID,0,VALID,18.7967,VALID,305,VALID,1.54924,
2005-11-03, 03:26:00,VALID,917.074,VALID,0,VALID,100,VALID,0,VALID,18.7736,VALID,59,VALID,0.879616,
2005-11-03, 03:27:00,VALID,917.082,VALID,0.2,VALID,100,VALID,-0.0169808,VALID,18.7736,VALID,85,VALID,0.440476,
2005-11-03, 03:28:00,VALID,917.097,VALID,0,VALID,100,VALID,0.0169808,VALID,18.7803,VALID,46,VALID,1.05391,
2005-11-03, 03:29:00,VALID,917.075,VALID,0.2,VALID,100,VALID,0.0339617,VALID,18.7734,VALID,189,VALID,0.971112,
2005-11-03, 03:30:00,VALID,917.074,VALID,0,VALID,100,VALID,0.0169808,VALID,18.7863,VALID,285,VALID,1.02035,
2005-11-03, 03:31:00,VALID,917.088,VALID,0.2,VALID,100,VALID,0,VALID,18.7898,VALID,83,VALID,1.16061,
2005-11-03, 03:32:00,VALID,917.038,VALID,0,VALID,100,VALID,0,VALID,18.7798,VALID,54,VALID,1.25817,
2005-11-03, 03:33:00,VALID,917.043,VALID,0.2,VALID,100,VALID,0,VALID,18.7642,VALID,71,VALID,1.48417,
2005-11-03, 03:34:00,VALID,917.068,VALID,0,VALID,100,VALID,0,VALID,18.7642,VALID,267,VALID,1.13672,
2005-11-03, 03:35:00,VALID,917.071,VALID,0,VALID,100,VALID,-0.0169808,VALID,18.7579,VALID,219,VALID,1.02109,
2005-11-03, 03:36:00,VALID,917.067,VALID,0.2,VALID,100,VALID,0,VALID,18.7508,VALID,234,VALID,1.13899,
2005-11-03, 03:37:00,VALID,917.041,VALID,0,VALID,100,VALID,0,VALID,18.7478,VALID,236,VALID,1.70313,
2005-11-03, 03:38:00,VALID,917.053,VALID,0.2,VALID,100,VALID,0.0169808,VALID,18.7508,VALID,315,VALID,1.62682,
2005-11-03, 03:39:00,VALID,917.061,VALID,0,VALID,100,VALID,0.0169808,VALID,18.7639,VALID,72,VALID,1.07868,
2005-11-03, 03:40:00,VALID,917.06,VALID,0.2,VALID,100,VALID,0,VALID,18.7635,VALID,8,VALID,1.01616,
2005-11-03, 03:41:00,VALID,917.049,VALID,0,VALID,100,VALID,0,VALID,18.7801,VALID,302,VALID,0.913132,
2005-11-03, 03:42:00,VALID,917.042,VALID,0,VALID,100,VALID,0,VALID,18.7538,VALID,235,VALID,0.926153,
2005-11-03, 03:43:00,VALID,917.054,VALID,0,VALID,100,VALID,0,VALID,18.7704,VALID,259,VALID,0.365451,
2005-11-03, 03:44:00,VALID,917.081,VALID,0,VALID,100,VALID,0,VALID,18.7736,VALID,34,VALID,0.747093,
2005-11-03, 03:45:00,VALID,917.067,VALID,0.2,VALID,100,VALID,0,VALID,18.7833,VALID,33,VALID,0.589134,
2005-11-03, 03:46:00,VALID,917.052,VALID,0,VALID,100,VALID,0,VALID,18.7928,VALID,64,VALID,0.37309,